Погода в Шеговарах

Россия / Архангельская область     62°22′27″N   42°57′01″E
темп.,
°C
ветер,
м/с
пор.,
м/с
влажн.,
%
обл.,
%
осадки,
мм/ч
давл.,
гПа
погр.,
м
25 июля, вс
вс2500:00+11зюз2764100 0.0 1012208
03:00+11юз2965100 0.0 1012249
06:00+12зюз3870100 0.0 1012370
09:00+15з355542 0.0 1013723
12:00+20зсз3535100 0.0 10132517
15:00+21зсз4736100 0.0 10132468
18:00+16ссз1358100 0.0 1015169
21:00+15зюз2766100 0.0 1014172
26 июля, пн
пн2600:00+14зсз1168100 0.0 101527
03:00+13з1275100 0.0 101539
06:00+15з247187 0.0 1015212
09:00+17зсз3759100 0.0 1015944
12:00+13з399699 1.4 1016557
15:00+17сз487355 2.0 10151165
18:00+17сз37734 1.1 1015890
21:00+13ссз410585 1.1 1017620
27 июля, вт
вт2700:00+8сз310714 0.0 1019356
03:00+5сз28895 0.0 1020189
06:00+9зсз387046 0.0 1020337
09:00+15сз475045 0.0 10191051
12:00+19сз57395 0.0 10181866
15:00+21сз58356 0.0 10172399
18:00+20ссз47405 0.0 10162064
21:00+13с22635 0.0 101629
28 июля, ср
ср2800:00+10сз22725 0.0 101722
03:00+7сз22840 0.0 101615
06:00+11зсз12695 0.0 1015150
09:00+17з244521 0.0 1013778
12:00+14св2369100 0.2 101172
15:00+19ююз366654 1.4 1007270
18:00+20св117468 1.2 1005220
21:00+14юв139819 2.6 100562
29 июля, чт
чт2900:00+13зсз119892 0.4 100515
03:00+12с119837 0.4 100410
06:00+14с019666 0.0 1004105
09:00+18вюв117312 0.0 1003488
12:00+23ю235298 0.0 10021144
15:00+17св2494100 4.3 1001142
18:00+17ю4896100 4.1 999332
21:00+15ююв31196100 11.2 999290